Preview of NWS' New Version of Forecast
This preview is not operational and should not be used for support decisions.

Regional Weather Roundup (RWR)

Issued by National Weather Service (NWS)

                            
000
ASUS43 KDTX 200410
RWRMI 
MICHIGAN HOURLY REGIONAL WEATHER ROUNDUP
NATIONAL WEATHER SERVICE DETROIT/PONTIAC MI
1200 AM EDT THU JUN 20 2019

NOTE: "FAIR" INDICATES FEW OR NO CLOUDS BELOW 12,000 FEET WITH NO
SIGNIFICANT WEATHER AND/OR OBSTRUCTION TO VISIBILITY.

MIZ047>049-052>055-059>063-066>070-074>076-081>083-200500-
SOUTHEAST LOWER MICHIGAN
  
CITY           SKY/WX    TMP DP  RH WIND       PRES   REMARKS
ADRIAN         FAIR      68  61  78 NE3       29.66F                  
ALMA           LGT RAIN  63  59  87 NE8       29.70F                  
ANN ARBOR      CLOUDY    68  59  73 E3        29.66F                  
BAD AXE        CLOUDY    56  53  88 N7        29.71F                  
CARO           DRIZZLE   60  54  79 NE3       29.71S                  
DETROIT CITY   FAIR      66  58  75 NE7       29.67F                  
DETROIT        CLOUDY    70  58  65 E6        29.66F                  
FLINT          LGT RAIN  66  62  87 N7        29.70S FOG              
GROSSE ILE     MOCLDY    67  62  84 NE5       29.65F                  
HILLSDALE      LGT RAIN  64  62  92 E3        29.66S                  
HOWELL         DRIZZLE   66  63  89 NE5       29.68S                  

CITY           SKY/WX    TMP DP  RH WIND       PRES   REMARKS
JACKSON        CLOUDY    65  64  97 NE6       29.67F                  
LAMBERTVILLE   LGT RAIN  67  63  87 CALM      29.64F                  
LANSING        HVY RAIN  63  63 100 NE7       29.68F VSB 1            
LAPEER         DRIZZLE   63  61  92 CALM      29.71S                  
MASON          RAIN      67  65  96 NE9       29.68F                  
MONROE         DRIZZLE   68  68  98 E3        29.64F                  
MT. CLEMENS    MOCLDY    64  62  96 N3        29.67F                  
PONTIAC        CLOUDY    66  62  87 E7        29.67F                  
PORT HOPE        N/A     55  53  93 N5        29.72F                  
PORT HURON     MOCLDY    61  54  77 N3        29.69F                  
TRI CITIES     LGT RAIN  60  59  96 NE12      29.72F                  
MIDLAND        DRIZZLE   59  56  88 NE3       29.71F                  
TROY           MOCLDY    67  57  68 NE6       29.70S                  
SAGINAW HB     DRIZZLE   63  59  88 NE8       29.71F                  
$$
MIZ043>046-050>051-056>058-064>065-071>073-077>080-200500-
SOUTHWEST LOWER MICHIGAN
  
CITY           SKY/WX    TMP DP  RH WIND       PRES   REMARKS
BATTLE CREEK   LGT RAIN  67  66  97 NE9       29.65F                  
BENTON HARBOR  CLOUDY    62  60  93 CALM      29.64F                  
BIG RAPIDS     CLOUDY    64  61  93 SE5       29.71F                  
COLDWATER      CLOUDY    67  67 100 E3        29.64F FOG              
FREMONT        DRIZZLE   64  62  95 NE5       29.69F                  
HOLLAND        LGT RAIN  67  60  78 E12       29.67S                  
GRAND RAPIDS   LGT RAIN  65  59  81 E9        29.67F                  
IONIA          LGT RAIN  63  59  85 NE9       29.67F                  
KALAMAZOO      LGT RAIN  68  65  90 NE3       29.65F FOG              
LUDINGTON      CLOUDY    62  56  81 NE5       29.70S                  
MARSHALL       CLOUDY    67  67 100 E5        29.65F                  
MOUNT PLEASANT DRIZZLE   62  57  86 N6        29.71F                  
MUSKEGON       LGT RAIN  66  61  84 NE6       29.68F                  
SOUTH HAVEN    RAIN      64  62  94 CALM      29.64F                  
$$
MIZ016>042-200500-
NORTHERN LOWER MICHIGAN
  
CITY           SKY/WX    TMP DP  RH WIND       PRES   REMARKS
ALPENA         FAIR      53  51  93 CALM      29.76F                  
BEAVER ISLAND  FAIR      57  46  68 NE8       29.79S                  
BELLAIRE       MOCLDY    61  55  81 CALM      29.75S                  
CADILLAC       MOCLDY    60  58  94 N5        29.72F                  
CHARLEVOIX     FAIR      60  53  77 NE8       29.79F                  
FRANKFORT      FAIR      61  54  78 CALM      29.74S                  
GAYLORD        FAIR      58  54  86 NE3       29.77S                  
GRAYLING       CLOUDY    56  56  98 CALM      29.74F                  
HARBOR SPRINGS FAIR      60  47  63 NE7       29.76F                  
HOUGHTON LAKE  FAIR      59  56  89 N6        29.74F                  
MANISTEE       FAIR      56  54  93 CALM      29.72F                  
OSCODA         CLOUDY    56  53  87 NE7       29.74S                  
PELLSTON       FAIR      56  50  80 N5        29.78S                  
ROGERS CITY    FAIR      52  50  93 CALM      29.77F                  
TRAVERSE CITY  MOCLDY    59  55  87 N5        29.73F                  
$$
MIZ007>008-015-200500-
EASTERN UPPER MICHIGAN
  
CITY           SKY/WX    TMP DP  RH WIND       PRES   REMARKS
KINROSS        FAIR      53  46  77 N7        29.79S                  
MACKINAC ISLAN MOCLDY    56  46  69 N7        29.77F HAZE             
NEWBERRY       MOCLDY    51  47  86 N5        29.81S                  
S. S. MARIE    MOCLDY    53  47  79 W3        29.78S                  
MUNISING         N/A     47  44  90 CALM      29.82S                  
$$
MIZ004>006-011>014-085-200500-
CENTRAL UPPER MICHIGAN
  
CITY           SKY/WX    TMP DP  RH WIND       PRES   REMARKS
MANISTIQUE     FAIR      54  50  86 N9        29.78F                  
ESCANABA       FAIR      57  46  66 N3        29.80S                  
MENOMINEE      FAIR      59  50  72 NE8       29.78S                  
SAWYER-GWINN   FAIR      51  46  82 NE8       29.82S                  
$$
MIZ001>003-009>011-084-200500-
WESTERN UPPER MICHIGAN
  
CITY           SKY/WX    TMP DP  RH WIND       PRES   REMARKS
IRON MOUNTAIN  FAIR      54  41  61 N5        29.80S                  
HOUGHTON       FAIR      50  43  77 NE3       29.83S                  
COPPER HARBOR    N/A     46  43  89 CALM      29.84R                  
IRONWOOD       FAIR      48  46  93 CALM      29.83S                  
$$

ABBREVIATIONS USED IN REMARKS
   TC - TEMPERATURE IN CELSIUS
  WCI - WIND CHILL INDEX
   HX - HEAT INDEX
  VSB - VISIBILITY